Retour au catalogue

STARLINK-6247

ActifCommunicationsVLEO
NORAD 57086·PAYLOAD·🇺🇸 United States

Lancé Jun 22, 2023 depuis Vandenberg Space Force Base

Loading…

Prochains Passages (prochaines 24 heures)

TLE

FraisSource: CelesTrak SupGP

Époque: Sep 15, 2026, 01:42 UTC

1 57086C 23088AQ  26258.07131944  .00046472  00000+0  16836-2 0  2585
2 57086  43.0000 106.5064 0001391 259.2829 145.9047 15.27548278    18

Suivez STARLINK-6247 en temps réel avec AllMySat

Download on the App Store